    Observer details:
    033 Karl Schwarzschild Observatory, Tautenburg.  Observers F. Ludwig,
        B. Stecklum.  Measurer B. Stecklum.  1.34-m f/3 Schmidt + CCD.
    113 Volkssternwarte Drebach, Schoenbrunn.  Observer G. Lehmann.  0.5-m f/4.6
        reflector + CCD.
    246 Klet Observatory-KLENOT.  Observers M. Tichy, J. Ticha.  Measurer M. Tichy.
        1.06-m KLENOT Telescope + CCD.
    585 Kyiv comet station.  Observer A. Baransky.  0.7-m f/4 reflector + CCD.
    673 Table Mountain Observatory, Wrightwood.  Observer J. Pittichova.  1.0-m
        f/15 reflector + CCD.
    703 Catalina Sky Survey.  Observers B. M. Africano, J. A. Johnson.  Measurers
        B. M. Africano, E. J. Christensen, D. C. Fuls, A. R. Gibbs, A. D. Grauer,
        J. A. Johnson, R. A. Kowalski, S. M. Larson, G. J. Leonard, R. L. Seaman,
        F. C. Shelly.  0.68-m Schmidt + 10K CCD.
    A17 Guidestar Observatory, Weinheim.  Observers M. Emmerich, S. Melchert.
        0.36-m f/6 Schmidt-Cassegrain + CCD.
    C43 Hoyerswerda.  Observer P. Lindner.  0.30-m f/6.3 Schmidt-Cassegrain + CCD.
    C47 Nonndorf.  Observer G. Dangl.  0.25-m f/4.8 reflector + CCD.
    E08 Wobblesock Observatory, Coonabarabran.  Observer J. Nott.  0.35-m
        reflector + CCD.
    E23 Arcadia.  Observer A. Hidas.  0.35-m f/1.9 reflector + CCD.
    I52 Steward Observatory, Mt. Lemmon Station.  Observers B. M. Africano,
        A. R. Gibbs, J. A. Johnson.  Measurers B. M. Africano, E. J. Christensen,
        D. C. Fuls, A. R. Gibbs, A. D. Grauer, J. A. Johnson, R. A. Kowalski,
        S. M. Larson, G. J. Leonard, R. L. Seaman, F. C. Shelly.  1.0-m reflector
        + CCD.
    K61 Rokycany Observatory.  Observers M. Adamovsky, M. Masek.  Measurer
        M. Adamovsky.  0.51-m f/6.8 reflector + CCD.
    K88 GINOP-KHK, Piszkesteto.  Observer K. Sarneczky.  0.60-m Schmidt + CCD.
    L33 Ananjev.  Observer N. Mishevskiy.  Measurers N. Mishevskiy, S. Khlamov.
        0.25-m f/4.7 reflector + CCD.
    P93 Space Tracking and Communications Center, JAXA.  Observers T. Fujiwara,
        A. Asami.  1.0-m f/3.0 reflector + CCD.
    
    Orbital elements:
    2018 GJ1                                            PHA, Earth MOID = 0.0142 AU
    Epoch 2018 Mar. 23.0 TT = JDT 2458200.5                 MPC
    M 322.02501              (2000.0)            P               Q
    n   0.40159826     Peri.  250.66457     +0.32126387     +0.94409139
    a   1.8194558      Node    38.32819     -0.81787038     +0.31601968
    e   0.5558404      Incl.    6.85616     -0.47736523     +0.09393084
    P   2.45           H   20.8           G   0.15           U   7
    Residuals in seconds of arc
    180408 703  0.2-  0.3-    180408 A17  0.3+  0.4-    180409 585  0.3+  0.3-
    180408 703  0.1+  0.2-    180408 C47  0.1+  0.0     180409 585  0.2+  0.2-
    180408 703  0.4+  0.7-    180408 C47  0.1-  0.1-    180410 I52  0.1-  0.0
    180408 703  0.0   0.7+    180408 C47  0.1+  0.0     180410 I52  0.0   0.1+
    180408 703  0.2+  0.5-    180408 C47  0.1+  0.1-    180410 I52  0.1+  0.1-
    180408 703  0.0   1.2+    180409 I52  0.6+  0.1+    180410 I52  0.2+  0.2+
    180408 E23  0.3-  0.2+    180409 I52  0.1+  0.3-    180410 E08  0.3-  0.2+
    180408 E23  0.1-  0.4+    180409 I52  0.4+  0.2-    180410 E08  0.4+  0.6-
    180408 E23  0.4-  0.1-    180409 I52  0.5+  0.2-    180410 E08  0.2-  0.3+
    180408 P93  0.2-  0.1+    180409 E08  0.0   0.3+    180410 033  0.1+  0.0
    180408 P93  0.0   0.2+    180409 E08  0.1+  0.1+    180410 033  0.2+  0.0
    180408 P93  0.4-  0.1-    180409 E08  0.4+  0.1-    180410 033  0.1+  0.0
    180408 P93  0.4-  0.1+    180409 L33  0.7-  1.1+    180410 K88  0.1-  0.1+
    180408 K61  0.8+  0.5+    180409 L33  1.0+  0.4-    180410 K88  0.1-  0.3+
    180408 K61  0.7+  0.5+    180409 L33  0.7-  0.1-    180410 K88  0.0   0.3+
    180408 K61  0.7+  0.3+    180409 K88  0.0   0.1+    180410 033  0.1-  0.0
    180408 113  0.7-  0.0     180409 K88  0.2+  0.1+    180410 033  0.1-  0.0
    180408 113  0.1-  0.6-    180409 K88  0.0   0.1+    180410 033  0.1-  0.0
    180408 113  0.3-  0.3-    180409 246  1.1-  0.3+    180411 I52  0.1+  0.4-
    180408 113  0.1-  0.4-    180409 246  0.8-  0.4+    180411 I52  0.4-  0.2-
    180408 246  0.5+  0.2+    180409 246  0.6-  0.3+    180411 I52  0.1-  0.2+
    180408 246  0.1-  0.1-    180409 246  0.1-  0.3-    180411 703  1.6-  0.4-
    180408 246  0.5-  0.6+    180409 246  0.2+  0.4-    180411 703  0.5+  0.1-
    180408 246  0.1+  0.2+    180409 246  0.0   0.1+    180411 703  0.5-  0.2+
    180408 246  0.5+  0.0     180409 585  0.1-  0.0     180411 703  0.5+  0.8-
    180408 C43  1.0-  0.5+    180409 585  0.1+  0.0     180411 673  1.9+  0.6-
    180408 C43  0.2-  0.5-    180409 585  0.1+  0.1-    180411 673  0.3+  0.4+
    180408 A17  0.0   0.4+    180409 585  0.2+  0.2-    180411 673  0.3-  0.7+
    180408 C43  0.2+  1.3-    180409 585  0.2+  0.1-
    180408 A17  0.3-  0.5-    180409 585  0.2+  0.1-
    
    Ephemeris:
    2018 GJ1                 a,e,i = 1.82, 0.56, 7                   q = 0.8081
    Date    TT    R. A. (2000) Decl.     Delta      r     Elong.  Phase     V
    2018 03 12    13 25 43.6 +02 55 52   0.5753  1.5207   150.4    18.8    21.5
    ...
    2018 03 27    13 15 57.3 +04 32 56   0.4093  1.3969   164.9    10.7    20.3
    ...
    2018 04 04    13 03 40.0 +05 42 59   0.3346  1.3294   168.4     8.7    19.6
    ...
    2018 04 10    12 49 57.2 +06 41 10   0.2848  1.2783   164.4    12.1    19.3
    2018 04 11    12 47 12.9 +06 51 07   0.2770  1.2698   163.3    13.1    19.3
    2018 04 12    12 44 20.1 +07 01 04   0.2693  1.2613   162.1    14.2    19.3
    ...
    2018 04 18    12 23 41.1 +07 59 43   0.2266  1.2102   152.9    22.2    19.1
    ...
    2018 04 26    11 44 46.2 +09 05 15   0.1777  1.1425   137.0    36.9    18.8
    ...
    2018 05 11    09 30 47.4 +08 44 02   0.1145  1.0207    92.2    81.4    19.0
    
    A. U. Tomatic                (C) Copyright 2018 MPC           M.P.E.C. 2018-G52
    

    Read MPEC 2018-G51 Read MPEC 2018-G53


    MPEC number:

    Enter an MPEC number in one of the following forms:

    • 1997-B01 (the full form)
    • J97B01 (the packed version of the full form)
    • B01 (the abbreviated form)